EA7WL-13 Weather Reports


Display with metric or nautical units.
time (UTC)temp
F
wind
direction
speed
MPH
gust
MPH
rain 1hr
in
rain 24hr
in
rain mn
in
humidity
%
barometer
mb
20260507033003 46 198 0.0 1.0 0.00 0.00 0.00 86 1012.7
20260507032504 45 195 0.0 3.0 0.00 0.00 0.00 86 1012.7
20260507032217 45 208 1.0 3.0 0.00 0.00 0.00 86 1012.9
20260507031503 46 223 1.0 3.0 0.00 0.00 0.00 85 1012.8
20260507031003 46 218 0.0 2.0 0.00 0.00 0.00 85 1012.7
20260507030718 46 217 0.0 2.0 0.00 0.00 0.00 85 1012.8
20260507030217 46 229 0.0 2.0 0.00 0.00 0.00 86 1012.8
20260507025503 46 226 1.0 2.0 0.00 0.00 0.00 86 1012.7
20260507025003 46 216 0.0 2.0 0.00 0.00 0.00 86 1012.8
20260507024503 46 205 0.0 1.0 0.00 0.00 0.00 85 1012.7
20260507024003 46 197 0.0 2.0 0.00 0.00 0.00 86 1012.6
20260507023503 46 185 0.0 2.0 0.00 0.00 0.00 86 1012.6
20260507023003 46 197 0.0 1.0 0.00 0.00 0.00 85 1012.7
20260507022503 46 212 0.0 1.0 0.00 0.00 0.00 85 1012.5
20260507022003 46 217 0.0 1.0 0.00 0.00 0.00 84 1012.6
20260507021503 47 214 0.0 1.0 0.00 0.00 0.00 84 1012.5
20260507021003 47 219 0.0 1.0 0.00 0.00 0.00 84 1012.6
20260507020503 47 221 0.0 1.0 0.00 0.00 0.00 84 1012.8
20260507020218 47 221 0.0 1.0 0.00 0.00 0.00 84 1012.6
20260507015503 47 200 0.0 2.0 0.00 0.00 0.00 83 1012.8
20260507015003 47 198 0.0 2.0 0.00 0.00 0.00 83 1012.8
20260507014503 48 199 0.0 2.0 0.00 0.00 0.00 84 1012.5
20260507014003 47 200 1.0 2.0 0.00 0.00 0.00 85 1012.8
20260507013503 46 194 1.0 2.0 0.00 0.00 0.00 85 1013.0
20260507013003 47 193 1.0 3.0 0.00 0.00 0.00 85 1012.9
20260507012503 46 183 1.0 4.0 0.00 0.00 0.00 85 1013.0
20260507012003 47 177 1.0 4.0 0.00 0.00 0.00 83 1013.1
20260507011503 47 205 0.0 2.0 0.00 0.00 0.00 83 1013.0
20260507010717 47 218 0.0 1.0 0.00 0.00 0.00 84 1013.2
20260507010003 47 219 0.0 2.0 0.00 0.00 0.00 83 1013.1
20260507005503 47 219 1.0 2.0 0.00 0.00 0.00 83 1013.2
20260507005003 47 222 1.0 2.0 0.00 0.00 0.00 83 1013.3
20260507004503 46 220 1.0 2.0 0.00 0.00 0.00 84 1013.3
20260507004003 47 212 1.0 2.0 0.00 0.00 0.00 84 1013.3
20260507003717 47 208 1.0 2.0 0.00 0.00 0.00 84 1013.3
20260507003003 47 213 1.0 2.0 0.00 0.00 0.00 83 1013.4
20260507002503 47 218 1.0 2.0 0.00 0.00 0.00 82 1013.6
20260507002218 47 220 1.0 2.0 0.00 0.00 0.00 82 1013.5
20260507001503 48 230 2.0 3.0 0.00 0.00 0.00 81 1013.7
20260507001003 47 227 1.0 3.0 0.00 0.00 0.00 82 1013.6
20260507000503 47 223 1.0 2.0 0.00 0.00 0.00 82 1013.5
20260507000003 47 214 0.0 2.0 0.00 0.00 0.00 83 1013.6
20260506235503 47 202 0.0 1.0 0.00 0.00 0.00 83 1013.7
20260506235003 48 193 0.0 2.0 0.00 0.00 0.00 82 1013.4
20260506234503 48 198 0.0 2.0 0.00 0.00 0.00 82 1013.7
20260506234003 48 204 0.0 1.0 0.00 0.00 0.00 82 1013.7
20260506233503 48 213 0.0 1.0 0.00 0.00 0.00 80 1013.6
20260506233218 49 215 0.0 1.0 0.00 0.00 0.00 81 1013.8
20260506232718 48 217 0.0 1.0 0.00 0.00 0.00 81 1014.0
20260506232217 49 0 0.0 0.0 0.00 0.00 0.00 80 1013.9
20260506231503 49 185 0.0 1.0 0.00 0.00 0.00 80 1013.7
20260506231003 49 192 0.0 1.0 0.00 0.00 0.00 80 1013.9
20260506230718 49 196 0.0 1.0 0.00 0.00 0.00 80 1013.8
20260506230003 50 200 0.0 2.0 0.00 0.00 0.00 79 1013.8
20260506225503 50 206 0.0 2.0 0.00 0.00 0.00 78 1013.7
20260506225003 50 225 0.0 1.0 0.00 0.00 0.00 77 1013.9
20260506224503 50 0 0.0 0.0 0.00 0.00 0.00 77 1013.9
20260506224003 50 191 0.0 1.0 0.00 0.00 0.00 78 1014.0
20260506223503 50 192 0.0 1.0 0.00 0.00 0.00 78 1014.0
20260506223003 51 198 0.0 1.0 0.00 0.00 0.00 76 1014.0
20260506222503 51 217 0.0 2.0 0.00 0.00 0.00 76 1013.9
20260506222003 51 217 1.0 2.0 0.00 0.00 0.00 76 1014.0
20260506221504 51 218 1.0 2.0 0.00 0.00 0.00 74 1013.9
20260506221003 52 0 0.0 0.0 0.00 0.00 0.00 74 1013.9
20260506220503 52 224 0.0 2.0 0.00 0.00 0.00 74 1014.0
20260506220003 52 224 0.0 2.0 0.00 0.00 0.00 73 1013.9
20260506215503 52 218 0.0 2.0 0.00 0.00 0.00 73 1014.0
20260506215003 52 212 0.0 1.0 0.00 0.00 0.00 74 1014.0
20260506214503 52 211 0.0 1.0 0.00 0.00 0.00 74 1013.8
20260506214003 53 188 0.0 2.0 0.00 0.00 0.00 72 1013.7
20260506213718 53 183 0.0 2.0 0.00 0.00 0.00 72 1013.7
20260506213003 53 157 2.0 3.0 0.00 0.00 0.00 71 1013.8
20260506212503 53 151 2.0 3.0 0.00 0.00 0.00 70 1013.8
20260506212217 53 156 1.0 3.0 0.00 0.00 0.00 70 1014.0
20260506211503 53 181 0.0 2.0 0.00 0.00 0.00 70 1013.9
20260506211003 53 201 0.0 1.0 0.00 0.00 0.00 71 1013.7
20260506210503 54 187 0.0 2.0 0.00 0.00 0.00 70 1013.9
20260506210003 54 188 1.0 2.0 0.00 0.00 0.00 69 1013.7
20260506205503 55 186 1.0 2.0 0.00 0.00 0.00 68 1013.7
20260506205003 56 168 1.0 2.0 0.00 0.00 0.00 67 1013.7
20260506204503 56 169 1.0 2.0 0.00 0.00 0.00 66 1013.6
20260506204003 56 188 0.0 2.0 0.00 0.00 0.00 67 1013.6
20260506203503 56 188 0.0 2.0 0.00 0.00 0.00 65 1013.6
20260506203003 58 257 0.0 1.0 0.00 0.00 0.00 63 1013.4
20260506202503 59 246 0.0 1.0 0.00 0.00 0.00 59 1013.4
20260506202218 59 251 0.0 1.0 0.00 0.00 0.00 58 1013.3
20260506201503 59 250 0.0 1.0 0.00 0.00 0.00 58 1013.2
20260506201003 60 285 0.0 3.0 0.00 0.00 0.00 58 1013.3
20260506200503 60 314 1.0 3.0 0.00 0.00 0.00 56 1013.0
20260506200003 60 288 1.0 6.0 0.00 0.00 0.00 56 1013.0
20260506195503 60 267 2.0 6.0 0.00 0.00 0.00 56 1013.0
20260506195003 60 266 2.0 4.0 0.00 0.00 0.00 56 1013.0
20260506194503 60 263 3.0 7.0 0.00 0.00 0.00 55 1012.9
20260506194003 61 264 3.0 7.0 0.00 0.00 0.00 55 1012.8
20260506193717 61 270 3.0 7.0 0.00 0.00 0.00 55 1012.7
20260506193003 61 265 4.0 7.0 0.00 0.00 0.00 55 1012.6
20260506192504 61 266 4.0 7.0 0.00 0.00 0.00 54 1012.8
20260506192218 62 265 4.0 7.0 0.00 0.00 0.00 54 1012.6
20260506191503 62 263 5.0 10.0 0.00 0.00 0.00 53 1012.7
20260506191003 62 269 6.0 11.0 0.00 0.00 0.00 53 1012.6
20260506190503 63 262 6.0 11.0 0.00 0.00 0.00 52 1012.5
20260506190004 63 257 6.0 11.0 0.00 0.00 0.00 51 1012.5
20260506185717 64 254 6.0 11.0 0.00 0.00 0.00 50 1012.2
20260506185003 65 268 6.0 13.0 0.00 0.00 0.00 49 1012.2
20260506184503 65 277 7.0 13.0 0.00 0.00 0.00 48 1012.3
20260506184003 66 286 5.0 13.0 0.00 0.00 0.00 46 1012.1
20260506183503 67 287 4.0 8.0 0.00 0.00 0.00 40 1012.1
20260506183003 68 276 3.0 8.0 0.00 0.00 0.00 40 1012.1
20260506182716 68 279 3.0 8.0 0.00 0.00 0.00 39 1011.9
20260506182003 68 288 4.0 7.0 0.00 0.00 0.00 39 1012.0
20260506181503 68 284 4.0 9.0 0.00 0.00 0.00 38 1012.0
20260506181003 68 280 4.0 9.0 0.00 0.00 0.00 38 1012.0
20260506180503 68 289 5.0 10.0 0.00 0.00 0.00 38 1012.0
20260506180004 68 279 4.0 10.0 0.00 0.00 0.00 38 1011.9
20260506175503 69 265 4.0 9.0 0.00 0.00 0.00 37 1012.1
20260506175003 69 276 4.0 7.0 0.00 0.00 0.00 37 1012.1
20260506174503 69 282 4.0 7.0 0.00 0.00 0.00 37 1012.2
20260506174003 69 271 4.0 8.0 0.00 0.00 0.00 37 1012.2
20260506173503 69 275 5.0 10.0 0.00 0.00 0.00 37 1012.2
20260506173003 69 282 6.0 10.0 0.00 0.00 0.00 37 1012.1
20260506172503 69 279 4.0 10.0 0.00 0.00 0.00 37 1012.2
20260506172003 70 274 3.0 7.0 0.00 0.00 0.00 35 1012.2
20260506171503 70 281 3.0 7.0 0.00 0.00 0.00 36 1012.3
20260506171004 70 268 3.0 7.0 0.00 0.00 0.00 36 1012.2
20260506170503 70 277 4.0 8.0 0.00 0.00 0.00 36 1012.2
20260506170217 70 279 5.0 8.0 0.00 0.00 0.00 35 1012.3
20260506165718 70 279 4.0 9.0 0.00 0.00 0.00 35 1012.2
20260506165003 71 302 3.0 7.0 0.00 0.00 0.00 35 1012.2
20260506164503 70 292 3.0 7.0 0.00 0.00 0.00 35 1012.3
20260506164003 70 259 3.0 7.0 0.00 0.00 0.00 35 1012.4
20260506163503 70 258 2.0 7.0 0.00 0.00 0.00 36 1012.3
20260506163003 71 277 2.0 7.0 0.00 0.00 0.00 35 1012.3
20260506162718 71 284 2.0 4.0 0.00 0.00 0.00 33 1012.4
20260506162003 71 310 2.0 6.0 0.00 0.00 0.00 34 1012.6
20260506161503 70 286 2.0 6.0 0.00 0.00 0.00 34 1012.4
20260506161003 70 290 4.0 9.0 0.00 0.00 0.00 35 1012.5
20260506160503 70 293 4.0 9.0 0.00 0.00 0.00 35 1012.4
20260506160003 70 279 4.0 9.0 0.00 0.00 0.00 35 1012.5
20260506155503 70 280 3.0 8.0 0.00 0.00 0.00 35 1012.5
20260506155003 71 289 3.0 7.0 0.00 0.00 0.00 35 1012.6
20260506154503 69 278 4.0 10.0 0.00 0.00 0.00 35 1012.6
20260506154003 70 292 4.0 10.0 0.00 0.00 0.00 36 1012.8
20260506153503 70 304 4.0 9.0 0.00 0.00 0.00 35 1012.6
20260506153003 70 290 4.0 9.0 0.00 0.00 0.00 35 1012.6
20260506152503 71 295 3.0 9.0 0.00 0.00 0.00 34 1012.7
20260506152218 70 298 4.0 9.0 0.00 0.00 0.00 35 1012.8
20260506151503 70 284 4.0 9.0 0.00 0.00 0.00 35 1012.8
20260506151003 69 280 4.0 9.0 0.00 0.00 0.00 35 1012.8
20260506150503 71 293 2.0 7.0 0.00 0.00 0.00 34 1013.1
20260506150003 72 282 3.0 7.0 0.00 0.00 0.00 33 1013.0
20260506145503 70 260 4.0 10.0 0.00 0.00 0.00 33 1013.1
20260506145218 70 257 5.0 11.0 0.00 0.00 0.00 35 1012.9
20260506144503 71 268 4.0 11.0 0.00 0.00 0.00 34 1013.2
20260506144003 70 296 4.0 10.0 0.00 0.00 0.00 34 1013.3
20260506143503 70 292 4.0 10.0 0.00 0.00 0.00 33 1013.2
20260506143218 69 285 5.0 10.0 0.00 0.00 0.00 35 1013.3
20260506142503 70 286 3.0 8.0 0.00 0.00 0.00 34 1013.5
20260506142218 70 286 3.0 7.0 0.00 0.00 0.00 34 1013.5
20260506141717 69 284 3.0 7.0 0.00 0.00 0.00 34 1013.5
20260506141003 69 273 4.0 8.0 0.00 0.00 0.00 34 1013.3
20260506140503 69 257 4.0 8.0 0.00 0.00 0.00 33 1013.7
20260506140218 69 262 4.0 7.0 0.00 0.00 0.00 34 1013.6
20260506135503 69 299 3.0 7.0 0.00 0.00 0.00 33 1013.6
20260506135218 70 321 3.0 10.0 0.00 0.00 0.00 34 1013.6
20260506134503 69 300 4.0 10.0 0.00 0.00 0.00 34 1013.7
20260506134003 68 284 4.0 8.0 0.00 0.00 0.00 34 1013.7
20260506133503 68 268 5.0 11.0 0.00 0.00 0.00 35 1013.8
20260506133003 68 261 6.0 11.0 0.00 0.00 0.00 35 1013.6
20260506132503 68 261 5.0 10.0 0.00 0.00 0.00 34 1013.8
20260506132218 68 255 4.0 10.0 0.00 0.00 0.00 35 1013.8
20260506131718 70 260 3.0 9.0 0.00 0.00 0.00 33 1014.0
20260506131003 69 300 4.0 10.0 0.00 0.00 0.00 35 1013.8
20260506130503 68 291 4.0 10.0 0.00 0.00 0.00 34 1013.9
20260506130003 68 270 4.0 8.0 0.00 0.00 0.00 35 1013.9
20260506125503 69 244 3.0 8.0 0.00 0.00 0.00 35 1013.8
20260506125003 70 211 2.0 6.0 0.00 0.00 0.00 33 1013.9
20260506124503 68 229 2.0 6.0 0.00 0.00 0.00 35 1013.9
20260506124003 67 255 4.0 10.0 0.00 0.00 0.00 34 1014.0
20260506123716 68 249 4.0 10.0 0.00 0.00 0.00 35 1014.2
20260506123003 69 270 4.0 8.0 0.00 0.00 0.00 34 1014.1
20260506122503 68 271 5.0 10.0 0.00 0.00 0.00 35 1014.2
20260506122003 68 254 4.0 10.0 0.00 0.00 0.00 35 1014.1
20260506121718 68 227 3.0 8.0 0.00 0.00 0.00 34 1014.1
20260506121217 70 73 2.0 9.0 0.00 0.00 0.00 32 1014.3
20260506120718 70 344 2.0 9.0 0.00 0.00 0.00 32 1014.2
20260506120217 69 283 1.0 6.0 0.00 0.00 0.00 32 1014.3
20260506115503 68 207 1.0 4.0 0.00 0.00 0.00 34 1014.4
20260506115003 67 207 1.0 4.0 0.00 0.00 0.00 35 1014.4
20260506114718 68 267 1.0 4.0 0.00 0.00 0.00 34 1014.3
20260506114003 67 309 2.0 4.0 0.00 0.00 0.00 35 1014.6
20260506113503 68 320 2.0 7.0 0.00 0.00 0.00 34 1014.5
20260506113003 68 303 2.0 7.0 0.00 0.00 0.00 34 1014.6
20260506112503 67 279 3.0 6.0 0.00 0.00 0.00 35 1014.4
20260506112003 67 257 3.0 6.0 0.00 0.00 0.00 35 1014.3
20260506111503 67 254 2.0 6.0 0.00 0.00 0.00 36 1014.5
20260506111003 68 297 3.0 8.0 0.00 0.00 0.00 35 1014.5
20260506110718 68 313 3.0 8.0 0.00 0.00 0.00 34 1014.5
20260506110004 68 4 3.0 8.0 0.00 0.00 0.00 36 1014.3
20260506105503 67 46 3.0 8.0 0.00 0.00 0.00 36 1014.5
20260506105217 67 48 2.0 8.0 0.00 0.00 0.00 36 1014.6
20260506104503 68 40 2.0 8.0 0.00 0.00 0.00 35 1014.7
20260506104003 68 353 2.0 8.0 0.00 0.00 0.00 35 1014.7
20260506103718 68 338 3.0 9.0 0.00 0.00 0.00 36 1014.7
20260506103003 67 330 2.0 9.0 0.00 0.00 0.00 36 1014.6
20260506102503 66 168 1.0 3.0 0.00 0.00 0.00 36 1014.7
20260506102219 66 170 1.0 6.0 0.00 0.00 0.00 36 1014.7
20260506101503 67 340 2.0 7.0 0.00 0.00 0.00 35 1014.8
20260506101003 66 2 2.0 7.0 0.00 0.00 0.00 36 1014.7
20260506100503 66 110 2.0 6.0 0.00 0.00 0.00 37 1014.8
20260506100004 66 264 2.0 6.0 0.00 0.00 0.00 41 1014.6
20260506095503 64 260 3.0 6.0 0.00 0.00 0.00 42 1014.8
20260506095003 64 256 4.0 6.0 0.00 0.00 0.00 43 1015.0
20260506094503 63 268 3.0 6.0 0.00 0.00 0.00 42 1014.9
20260506094003 64 260 2.0 6.0 0.00 0.00 0.00 42 1014.8
20260506093717 65 245 1.0 3.0 0.00 0.00 0.00 41 1014.7
20260506093218 65 200 1.0 4.0 0.00 0.00 0.00 40 1014.9
20260506092503 64 191 2.0 4.0 0.00 0.00 0.00 42 1014.8
20260506092003 64 205 1.0 3.0 0.00 0.00 0.00 46 1014.8
20260506091503 64 235 1.0 4.0 0.00 0.00 0.00 46 1014.7
20260506091003 63 260 2.0 4.0 0.00 0.00 0.00 47 1014.8
20260506090503 62 257 2.0 6.0 0.00 0.00 0.00 49 1014.9
20260506090003 62 240 2.0 6.0 0.00 0.00 0.00 49 1014.8
20260506085503 63 217 1.0 3.0 0.00 0.00 0.00 48 1014.9
20260506085003 62 221 1.0 3.0 0.00 0.00 0.00 50 1014.9
20260506084717 62 231 1.0 3.0 0.00 0.00 0.00 50 1014.9
20260506084218 62 252 1.0 3.0 0.00 0.00 0.00 50 1015.0
20260506083503 63 228 1.0 2.0 0.00 0.00 0.00 49 1014.7
20260506083218 62 227 1.0 3.0 0.00 0.00 0.00 50 1014.8
20260506082503 61 188 1.0 3.0 0.00 0.00 0.00 51 1014.9
20260506082003 62 259 1.0 3.0 0.00 0.00 0.00 50 1014.7
20260506081503 61 253 1.0 3.0 0.00 0.00 0.00 51 1015.1
20260506081003 61 217 1.0 3.0 0.00 0.00 0.00 52 1014.8
20260506080503 60 216 1.0 3.0 0.00 0.00 0.00 54 1014.9
20260506073503 56 159 0.0 2.0 0.00 0.00 0.00 68 1014.8
20260506073217 55 157 0.0 2.0 0.00 0.00 0.00 69 1014.7
20260506072503 54 186 0.0 1.0 0.00 0.00 0.00 72 1014.8
20260506072003 53 182 0.0 1.0 0.00 0.00 0.00 74 1014.9
20260506071716 53 192 0.0 1.0 0.00 0.00 0.00 74 1014.9
20260506071003 52 245 0.0 1.0 0.00 0.00 0.00 75 1015.0
20260506070503 51 0 0.0 0.0 0.00 0.00 0.00 77 1015.0
20260506070217 50 0 0.0 0.0 0.00 0.00 0.00 77 1015.0
20260506062503 47 0 0.0 0.0 0.00 0.00 0.00 83 1015.0
20260506062217 46 0 0.0 0.0 0.00 0.00 0.00 84 1015.0
20260506061503 45 0 0.0 0.0 0.00 0.00 0.00 84 1014.9
20260506061003 46 0 0.0 0.0 0.00 0.00 0.00 84 1015.0
20260506060503 45 0 0.0 0.0 0.00 0.00 0.00 85 1014.8
20260506060217 45 0 0.0 0.0 0.00 0.00 0.00 85 1014.9
20260506051003 42 0 0.0 0.0 0.00 0.00 0.00 91 1014.8
20260506050503 42 0 0.0 0.0 0.00 0.00 0.00 91 1014.9
20260506045003 42 0 0.0 0.0 0.00 0.00 0.00 90 1014.7
20260506044503 42 0 0.0 0.0 0.00 0.00 0.00 90 1014.7
20260506044003 42 0 0.0 0.0 0.00 0.00 0.00 90 1014.9
20260506043503 42 0 0.0 0.0 0.00 0.00 0.00 90 1014.8
20260506043003 42 0 0.0 0.0 0.00 0.00 0.00 91 1014.8
20260506042503 42 0 0.0 0.0 0.00 0.00 0.00 91 1014.8
20260506042218 42 0 0.0 0.0 0.00 0.00 0.00 90 1014.8
20260506041503 42 0 0.0 0.0 0.00 0.00 0.00 90 1014.9
20260506041218 42 0 0.0 0.0 0.00 0.00 0.00 90 1015.0
20260506040503 42 219 0.0 1.0 0.00 0.00 0.00 90 1014.9
20260506040003 42 219 0.0 1.0 0.00 0.00 0.00 90 1015.0
20260506035717 42 219 0.0 1.0 0.00 0.00 0.00 90 1014.9
20260506035003 43 0 0.0 0.0 0.00 0.00 0.00 90 1014.9
20260506034503 43 0 0.0 0.0 0.00 0.00 0.00 90 1015.0
20260506034003 43 0 0.0 0.0 0.00 0.00 0.00 90 1015.1
20260506033503 43 203 0.0 1.0 0.00 0.00 0.00 90 1015.2